Find Starlink 3110

NORAD ID: 49420 Int'l Des: 2021-104 Owner: SPXS Country: US Constellation: starlink operational
LEOCIRCULAR

当前视图

正在加载3D地球...

About Starlink 3110

Starlink 3110 (NORAD 49420) is a starlink constellation satellite (v1.5) launched Nov 13, 2021 by SPXS of US. It operates in LEO, CIRCULAR orbit with a mass of 290.00 kg.

即将过境

Passes for default location (London). Set your location on the main map for personalized predictions.

高度历史

Loading altitude history...

两行轨道根数

1 49420U 21104N 26246.68573527 -.00000206 00000-0 50505-5 0 9999
2 49420 53.1612 138.2613 0001224 86.1004 274.0138 15.34384437265652
Epoch: Sep 3, 2026 • Age: 10 hours

当前状态

高度 473.9 km
远地点 / 近地点 N/A
速度 7.63 km/s
星下点 -33.53°S, 39.52°W
发射日期 Nov 13, 2021
运行时间 4.8 years
类型 internet

技术详情

分类 Payload
质量 290.00 kg
干质量 270.00 kg
总质量 290.00 kg
长度 0.20 m
直径 2.80 m
跨度 9.00 m
形状 Box + pan
制造商 SPXS
平台类型 Starlink
阶段状态 In Orbit
所有者/国家 SPXS/US

Most Searched